Regional Weather Roundup
Issued by NWS Charleston, SC

Current Version | Previous Version | Graphics & Text | Print | Product List | Glossary On
Versions: 1 2 3 4 5 6 7 8 9 10 11 12 13 14 15 16 17 18 19 20 21 22 23 24 25 26 27 28 29 30 31 32 33 34 35 36 37 38 39 40 41 42 43 44 45 46 47 48 49 50
000 ASUS42 KCHS 260212 RWRCHS REGIONAL WEATHER ROUNDUP NATIONAL WEATHER SERVICE CHARLESTON SC 1000 PM EDT MON MAY 25 2015 NOTE: "FAIR" INDICATES FEW OR NO CLOUDS BELOW 12,000 FEET WITH NO SIGNIFICANT WEATHER AND/OR OBSTRUCTIONS TO VISIBILITY. NOT ALL STATIONS ARE QUALITY CONTROLLED BY THE NATIONAL WEATHER SERVICE. USE DATA WITH CAUTION...ESPECIALLY DEWPOINT OBSERVATIONS. SCZ027-030-031-034>040-042>050-260300- ...SOUTHEAST SOUTH CAROLINA... CITY SKY/WX TMP DP RH WIND PRES REMARKS N CHARLESTON PTCLDY 73 67 81 E7 30.26S WATERFRONT PAR N/A 76 70 81 E8 30.23S MOUNT PLEASANT LGT RAIN 70 68 94 CALM 30.27R JOHNS ISLAND CLEAR 73 70 88 E7 30.27R PINOPOLIS N/A 75 68 78 VRB3 30.17F MONCKS CORNER FAIR 73 66 78 CALM 30.26S SUMMERVILLE FAIR 73 68 83 E3 30.27R BEAUFORT MCAS FAIR 74 70 87 E7 30.25R BEAUFORT ARPT FAIR 73 72 94 E6 30.24S HILTON HEAD IS PTCLDY 75 72 88 NE6 30.26R WALTERBORO CLEAR 70 66 88 E5 30.26R ALLENDALE N/A 75 68 78 SE5 30.24R ...SOUTHERN MIDLANDS AND PEE DEE... CITY SKY/WX TMP DP RH WIND PRES REMARKS GEORGETOWN NOT AVBL KINGSTREE NOT AVBL ORANGEBURG PTCLDY 74 66 76 SE5 30.25R BARNWELL FAIR 77 68 73 SE7 30.26R AIKEN FAIR 75 63 64 SE8 30.28R MANNING FAIR 70 63 78 CALM 30.26S COLUMBIA PTCLDY 76 65 68 E6 30.24R SUMTER NOT AVBL FLORENCE CLEAR 73 65 75 SE9 30.26S MYRTLE BEACH CLEAR 73 64 73 SE7 30.30R N MYRTLE BEACH CLEAR 75 66 73 SE7 30.29R $$ GAZ063-065-086>088-099>101-113>116-118-119-134>141-150-260300- ...SOUTHEAST GEORGIA... CITY SKY/WX TMP DP RH WIND PRES REMARKS SAVANNAH ARPT PTCLDY 75 70 84 E8 30.24R HUNTER AAF PTCLDY 74 72 91 E7 30.22R FORT STEWART PTCLDY 72 69 88 E5 30.22R STATESBORO PTCLDY 73 70 91 SE3 30.23R SYLVANIA MOCLDY 75 70 84 SE3 30.24R CLAXTON FAIR 73 68 83 E5 30.23R ...CSRA...CENTRAL AND FAR SOUTHEAST GEORGIA... CITY SKY/WX TMP DP RH WIND PRES REMARKS THOMSON CLOUDY 78 72 79 SE3 30.27R AUGUSTA-BUSH MOCLDY 75 67 76 SE7 30.22R AUGUSTA-DANIEL MOCLDY 78 66 66 SE6 30.24R SWAINSBORO FAIR 79 70 73 SE9 30.22R VIDALIA PTCLDY 73 68 83 SE5 30.22R EASTMAN FAIR 75 75 100 SE6 30.21R HAZLEHURST FAIR 78 71 79 SE6 30.19R ALMA CLEAR 76 69 79 E8 30.20R WAYCROSS PTCLDY 76 72 87 SE9 30.20R JESUP FAIR 77 72 83 E6 30.23R BAXLEY FAIR 77 70 78 SE7 30.20R BRUNSWICK CLEAR 75 70 83 E5 30.23R SAINT SIMONS NOT AVBL $$ SCZ027-028-034-036>038-045-046-048>050-GAZ119-141-260300- ...LAKE AND SUPPLEMENTAL COASTAL OBSERVATIONS... STATION/POSITION TIME TEMP WIND PRES WAVE SWELL AIR SEA DIR/SP/G HT/PER HT/PER/DIR (UTC) (F) (DEG/KT/KT) (MB) (FT/S) (FT/S/D) UPR LAKE MARION NOT AVBL WINYAH BAY NOT AVBL LAKE MURRAY 0100 78 120/ 5/ 9 1022.7R ACE BASIN NERRS NOT AVBL FORT PULASKI 0100 76 78 70/ 12/ 13 1024.2F SAPELO ISLAND 0100 76 90/ 6 1023.0S $$ ANZ835-935-AMZ111-154-330-350-352-354-370-450-454-472-260300- ...C-MAN AND BUOY OBSERVATIONS... STATION/POSITION TIME TEMP WIND PRES WAVE SWELL AIR SEA DIR/SP/G HT/PER HT/PER/DIR (UTC) (F) (DEG/KT/KT) (MB) (FT/S) (FT/S/D) BUOY 41004 0150 75 75 100/ 12/ 16 1024.3R 4/ 7 2/ 7 BUOY 41008 0150 76 76 90/ 10/ 12 1023.7R 3/ 8 3/100/ 8 FOLLY BEACH CMAN 0200 75 100/ 11/ 12 1025.0R CAPERS NEARSHORE 0108 75 110/ 8/ 12 1024.9R FRIPP NEARSHORE 0100 76 100/ 14/ 16 1023.4F STATION/POSITION TIME TEMP WIND PRES WAVE SWELL AIR SEA DIR/SP/G HT/PER HT/PER/DIR (UTC) (F) (DEG/KT/KT) (MB) (FT/S) (FT/S/D) 5E ST. MARYS GA 0121 79 N/A 3/ 8 FRYING PAN BUOY 0150 76 74 120/ 10/ 10 1026.6R 3/ 6 3/150/ 6 BUOY 41025 0150 74 76 170/ 14/ 16 1027.0R 2/ 7 2/ 90/ 7 CAPE LOOKOUT NC 0200 74 150/ 13/ 14 1026.4R BUOY 41002 0150 74 74 130/ 16/ 19 1026.5R 3/ 7 2/ 90/11 BUOY 41010 0120 79 81 100/ 12/ 14 1023.3S ST AUGUSTINE FL 0200 78 79 120/ 10/ 11 1023.5R $$

USA.gov is the U.S. government's official web portal to all federal, state and local government web resources and services.